Location: Boiro
(42.6475°N, 8.8834°W)
Time: 23:52:02
(UTC+01:00)

A-11 Canister half - Pass Details

Date: 03 December 2021
Orbit: 1516 x 1684 km, 47.2° (Epoch: 18 January)

Event Time Altitude Azimuth Distance (km) Brightness Sun altitude
Rises 10:36:53 0° 261° (W) 4,795 11.3 14.5°
Reaches altitude 10° 10:39:58 10° 264° (W) 3,833 10.8 14.8°
Maximum altitude 10:49:49 72° 349° (N) 1,721 9.4 15.9°
Drops below altitude 10° 10:59:58 10° 74° (ENE) 3,942 11.5 17.0°
Sets 11:03:11 0° 76° (ENE) 4,937 11.9 17.4°
